CW5456 Weather Reports


time (UTC)temp
C
wind
direction
speed
KPH
gust
KPH
rain 1hr
cm
rain 24hr
cm
rain mn
cm
humidity
%
barometer
mb
20260505124550 12 131 4.8 17.7 0.00 0.00 0.00 94 1011.7
20260505124050 12 122 14.5 16.1 0.00 0.00 0.00 94 1011.7
20260505123550 12 117 8.0 14.5 0.00 0.00 0.00 94 1011.6
20260505123050 12 110 6.4 17.7 0.00 0.00 0.00 94 1011.6
20260505122550 12 119 0.0 17.7 0.00 0.00 0.00 95 1011.5
20260505122051 12 135 6.4 16.1 0.00 0.00 0.00 95 1011.5
20260505121550 11 135 8.0 20.9 0.00 0.00 0.00 95 1011.5
20260505121050 11 129 6.4 20.9 0.00 0.00 0.00 95 1011.5
20260505120549 11 116 14.5 16.1 0.00 0.00 0.00 95 1011.4
20260505120050 11 106 6.4 14.5 0.00 0.00 0.00 95 1011.4
20260505115550 11 123 3.2 17.7 0.00 0.00 0.00 95 1011.3
20260505115050 11 108 6.4 17.7 0.00 0.00 0.00 95 1011.2
20260505114550 11 110 4.8 11.3 0.00 0.00 0.00 96 1011.2
20260505114049 11 128 4.8 12.9 0.00 0.00 0.00 96 1011.2
20260505113549 11 129 1.6 12.9 0.00 0.00 0.00 96 1011.2
20260505113049 11 227 3.2 6.4 0.00 0.00 0.00 95 1011.3
20260505112549 11 231 0.0 6.4 0.00 0.00 0.00 96 1011.2
20260505112049 11 231 0.0 6.4 0.00 0.00 0.00 96 1011.2
20260505111549 11 235 0.0 6.4 0.00 0.00 0.00 95 1011.2
20260505110549 11 240 0.0 9.7 0.00 0.00 0.00 95 1011.1
20260505102048 10 260 0.0 0.0 0.00 0.00 0.00 94 1010.8
20260505101549 10 260 0.0 0.0 0.00 0.00 0.00 94 1010.7
20260505101048 10 260 0.0 0.0 0.00 0.00 0.00 94 1010.7
20260505100548 10 260 0.0 0.0 0.00 0.00 0.00 94 1010.7
20260505100048 10 260 0.0 0.0 0.00 0.00 0.00 94 1010.7
20260505095548 10 260 0.0 0.0 0.00 0.00 0.00 94 1010.6
20260505095048 10 260 0.0 0.0 0.00 0.00 0.00 94 1010.6
20260505094548 10 260 0.0 0.0 0.00 0.00 0.00 94 1010.5
20260505094048 10 260 0.0 0.0 0.00 0.00 0.00 94 1010.5
20260505093549 10 259 0.0 0.0 0.00 0.00 0.00 94 1010.4
20260505093047 10 259 0.0 0.0 0.00 0.00 0.00 94 1010.4
20260505091548 10 260 0.0 0.0 0.00 0.00 0.00 93 1010.4
20260505091048 10 259 0.0 0.0 0.00 0.00 0.00 93 1010.3
20260505090547 10 260 0.0 3.2 0.00 0.00 0.00 93 1010.3
20260505090048 11 260 0.0 4.8 0.00 0.00 0.00 93 1010.1
20260505085548 11 259 3.2 4.8 0.00 0.00 0.00 93 1010.1
20260505085047 11 260 0.0 3.2 0.00 0.00 0.00 93 1010.1
20260505084547 11 260 0.0 3.2 0.00 0.00 0.00 93 1010.1
20260505084047 11 259 0.0 3.2 0.00 0.00 0.00 93 1010.1
20260505083547 11 260 0.0 3.2 0.00 0.00 0.00 93 1010.0
20260505083047 11 260 0.0 3.2 0.00 0.00 0.00 93 1010.0
20260505082046 11 260 0.0 1.6 0.00 0.00 0.00 93 1009.8
20260505081547 11 260 0.0 0.0 0.00 0.00 0.00 93 1009.8
20260505081047 11 260 0.0 0.0 0.00 0.00 0.00 92 1009.9
20260505080547 11 260 0.0 0.0 0.00 0.00 0.00 92 1009.9
20260505080047 11 260 0.0 0.0 0.00 0.00 0.00 92 1010.0
20260505075546 11 260 0.0 0.0 0.00 0.00 0.00 92 1009.9
20260505075047 11 260 0.0 0.0 0.00 0.00 0.00 92 1009.9
20260505074546 11 260 0.0 1.6 0.00 0.00 0.00 91 1009.8
20260505074046 11 260 0.0 1.6 0.00 0.00 0.00 91 1009.8
20260505073546 11 260 0.0 0.0 0.00 0.00 0.00 91 1009.6
20260505073047 11 260 0.0 0.0 0.00 0.00 0.00 91 1009.5
20260505072047 11 260 0.0 0.0 0.00 0.00 0.00 91 1009.5
20260505071546 11 260 0.0 4.8 0.00 0.00 0.00 91 1009.4
20260505070546 11 262 3.2 9.7 0.00 0.00 0.00 90 1009.5
20260505070046 11 263 0.0 4.8 0.00 0.00 0.00 91 1009.3
20260505065547 11 263 1.6 4.8 0.00 0.00 0.00 90 1009.3
20260505065046 11 263 1.6 4.8 0.00 0.00 0.00 90 1009.2
20260505064545 11 263 0.0 3.2 0.00 0.00 0.00 90 1009.3
20260505064045 11 264 0.0 0.0 0.00 0.00 0.00 89 1009.1
20260505063545 11 263 0.0 0.0 0.00 0.00 0.00 89 1009.1
20260505063045 12 264 0.0 0.0 0.00 0.00 0.00 89 1009.1
20260505062547 12 264 0.0 0.0 0.00 0.00 0.00 89 1009.1
20260505062046 12 263 0.0 0.0 0.00 0.00 0.00 89 1009.0
20260505061545 12 263 0.0 0.0 0.00 0.00 0.00 89 1009.0
20260505061045 12 263 0.0 0.0 0.00 0.00 0.00 89 1009.0
20260505060547 12 263 0.0 3.2 0.00 0.00 0.00 89 1008.8
20260505060045 12 263 0.0 3.2 0.00 0.00 0.00 89 1008.7
20260505055045 12 263 0.0 3.2 0.00 0.00 0.00 88 1008.5
20260505054545 12 263 0.0 3.2 0.00 0.00 0.00 88 1008.5
20260505054044 12 263 0.0 3.2 0.00 0.00 0.00 88 1008.5
20260505053545 12 263 0.0 3.2 0.00 0.00 0.00 88 1008.5
20260505053045 12 263 0.0 3.2 0.00 0.00 0.00 88 1008.5
20260505052545 12 264 0.0 1.6 0.00 0.00 0.00 87 1008.5
20260505052045 12 264 0.0 1.6 0.00 0.00 0.00 87 1008.5
20260505050544 13 264 0.0 0.0 0.00 0.00 0.00 87 1008.3
20260505041544 13 263 0.0 0.0 0.00 0.00 0.00 86 1007.9
20260505041043 14 263 0.0 0.0 0.00 0.00 0.00 85 1007.7
20260505040544 14 263 0.0 0.0 0.00 0.00 0.00 85 1007.7
20260505035544 14 263 0.0 4.8 0.00 0.00 0.00 84 1007.5
20260505035044 15 263 0.0 4.8 0.00 0.00 0.00 83 1007.5
20260505034543 15 263 1.6 4.8 0.00 0.00 0.00 83 1007.4
20260505034043 15 264 0.0 4.8 0.00 0.00 0.00 82 1007.3
20260505033044 15 264 0.0 3.2 0.00 0.00 0.00 81 1007.2
20260505032544 15 264 0.0 6.4 0.00 0.00 0.00 81 1007.1
20260505032043 15 264 0.0 6.4 0.00 0.00 0.00 81 1007.1
20260505031543 15 264 4.8 6.4 0.00 0.00 0.00 81 1007.0
20260505031043 15 264 0.0 6.4 0.00 0.00 0.00 80 1007.0
20260505030543 15 264 1.6 6.4 0.00 0.00 0.00 80 1007.0
20260505030043 16 264 0.0 3.2 0.00 0.00 0.00 79 1006.9
20260505024542 16 264 0.0 4.8 0.00 0.00 0.00 78 1006.9
20260505024043 16 264 1.6 4.8 0.00 0.00 0.00 78 1006.9
20260505023542 16 264 0.0 9.7 0.00 0.00 0.00 78 1006.9
20260505023043 16 264 0.0 11.3 0.00 0.00 0.00 78 1006.8
20260505022542 16 262 9.7 11.3 0.00 0.00 0.00 78 1006.8
20260505022042 16 264 4.8 11.3 0.00 0.00 0.00 79 1006.9
20260505021542 16 266 0.0 11.3 0.00 0.00 0.00 79 1007.0
20260505021042 16 266 6.4 9.7 0.00 0.00 0.00 79 1006.9
20260505020542 16 266 1.6 9.7 0.00 0.00 0.00 79 1007.0
20260505020042 16 266 6.4 9.7 0.00 0.00 0.00 80 1007.0
20260505015542 15 266 1.6 9.7 0.00 0.00 0.00 80 1007.0
20260505015042 15 266 0.0 9.7 0.00 0.00 0.00 81 1007.0
20260505014042 15 266 0.0 6.4 0.00 0.00 0.00 82 1007.2
20260505013542 15 266 0.0 12.9 0.00 0.00 0.00 81 1007.2
20260505013042 15 266 6.4 12.9 0.00 0.00 0.00 81 1007.3
20260505012541 15 266 6.4 12.9 0.00 0.00 0.00 81 1007.3
20260505012042 15 266 3.2 9.7 0.00 0.00 0.00 82 1007.3
20260505011042 15 266 0.0 11.3 0.00 0.00 0.00 82 1007.4
20260505010541 15 266 0.0 14.5 0.00 0.00 0.00 82 1007.4
20260505005041 15 275 12.9 16.1 0.00 0.00 0.00 81 1007.4
20260505004541 15 256 0.0 11.3 0.00 0.00 0.00 82 1007.4
20260505004041 15 250 0.0 12.9 0.00 0.00 0.00 83 1007.4
20260505003541 14 248 11.3 17.7 0.00 0.00 0.00 83 1007.4
20260505003042 14 289 11.3 17.7 0.00 0.00 0.00 83 1007.4
20260505002040 15 258 12.9 20.9 0.00 0.00 0.00 82 1007.4
20260505001540 15 250 9.7 19.3 0.00 0.00 0.00 81 1007.4
20260505001040 15 268 17.7 17.7 0.00 0.00 0.00 81 1007.4
20260505000041 15 273 6.4 12.9 0.00 0.00 0.00 82 1007.3
20260504235541 15 289 0.0 11.3 0.00 0.00 0.00 82 1007.3
20260504235040 15 295 0.0 4.8 0.00 0.00 0.00 83 1007.4
20260504234540 15 292 4.8 4.8 0.00 0.00 0.00 84 1007.4
20260504234040 15 294 0.0 6.4 0.00 0.00 0.00 84 1007.4
20260504233540 14 295 4.8 9.7 0.00 0.00 0.00 84 1007.4
20260504233040 14 308 0.0 14.5 0.00 0.00 0.00 85 1007.4
20260504232540 14 308 6.4 14.5 0.00 0.00 0.00 85 1007.4
20260504232040 14 319 1.6 14.5 0.00 0.00 0.00 84 1007.4
20260504231540 14 345 6.4 14.5 0.00 0.00 0.00 83 1007.4
20260504230540 15 356 8.0 14.5 0.00 0.00 0.00 81 1007.5
20260504230040 15 13 3.2 8.0 0.00 0.00 0.00 80 1007.5
20260504225539 15 13 3.2 8.0 0.00 0.00 0.00 80 1007.5
20260504225040 16 13 8.0 12.9 0.00 0.00 0.00 79 1007.5
20260504224540 16 14 3.2 12.9 0.00 0.00 0.00 78 1007.5
20260504224040 17 15 9.7 12.9 0.00 0.00 0.00 76 1007.5
20260504223539 17 44 8.0 9.7 0.00 0.00 0.00 76 1007.6
20260504223039 18 44 1.6 6.4 0.00 0.00 0.00 73 1007.6
20260504222539 18 44 3.2 6.4 0.00 0.00 0.00 73 1007.5
20260504222039 18 44 3.2 6.4 0.00 0.00 0.00 72 1007.6
20260504221540 18 44 6.4 6.4 0.00 0.00 0.00 72 1007.7
20260504221039 18 44 1.6 3.2 0.00 0.00 0.00 73 1007.7
20260504220039 17 44 3.2 6.4 0.00 0.00 0.00 76 1007.8
20260504215539 18 44 4.8 4.8 0.00 0.00 0.00 75 1007.9
20260504214538 17 44 0.0 6.4 0.00 0.00 0.00 75 1008.0
20260504214039 18 44 1.6 6.4 0.00 0.00 0.00 74 1008.0
20260504213538 18 44 1.6 6.4 0.00 0.00 0.00 72 1008.0
20260504213039 18 44 0.0 6.4 0.00 0.00 0.00 71 1008.0
20260504212539 18 44 3.2 4.8 0.00 0.00 0.00 72 1008.1
20260504212039 18 44 1.6 6.4 0.00 0.00 0.00 70 1008.1
20260504211538 18 44 3.2 6.4 0.00 0.00 0.00 70 1008.2
20260504211038 18 44 1.6 4.8 0.00 0.00 0.00 70 1008.2
20260504210538 18 44 0.0 6.4 0.00 0.00 0.00 71 1008.2
20260504205538 18 44 0.0 9.7 0.00 0.00 0.00 71 1008.2
20260504205038 18 44 3.2 11.3 0.00 0.00 0.00 72 1008.2
20260504204538 18 44 8.0 12.9 0.00 0.00 0.00 70 1008.2
20260504204038 19 44 6.4 12.9 0.00 0.00 0.00 69 1008.2
20260504203538 19 46 8.0 12.9 0.00 0.00 0.00 69 1008.2
20260504203038 19 49 12.9 12.9 0.00 0.00 0.00 69 1008.2
20260504202538 19 52 6.4 12.9 0.00 0.00 0.00 67 1008.2
20260504202038 19 58 8.0 11.3 0.00 0.00 0.00 67 1008.2
20260504201538 20 58 3.2 11.3 0.00 0.00 0.00 67 1008.3
20260504201038 19 61 4.8 8.0 0.00 0.00 0.00 67 1008.3
20260504200538 19 61 3.2 11.3 0.00 0.00 0.00 69 1008.3
20260504200037 18 61 4.8 12.9 0.00 0.00 0.00 70 1008.3
20260504195038 18 95 1.6 11.3 0.00 0.00 0.00 72 1008.3
20260504194038 18 98 6.4 9.7 0.00 0.00 0.00 71 1008.3
20260504193538 18 102 6.4 9.7 0.00 0.00 0.00 73 1008.3
20260504192537 18 126 3.2 6.4 0.00 0.00 0.00 72 1008.3
20260504192037 18 128 4.8 6.4 0.00 0.00 0.00 72 1008.4
20260504191537 18 133 4.8 6.4 0.00 0.00 0.00 73 1008.4
20260504191038 18 133 3.2 6.4 0.00 0.00 0.00 73 1008.4
20260504190537 18 133 3.2 8.0 0.00 0.00 0.00 73 1008.4
20260504190037 18 133 3.2 8.0 0.00 0.00 0.00 73 1008.5
20260504185536 18 135 3.2 8.0 0.00 0.00 0.00 72 1008.4
20260504185037 17 135 4.8 8.0 0.00 0.00 0.00 73 1008.5
20260504184538 17 140 3.2 8.0 0.00 0.00 0.00 74 1008.5
20260504183536 17 146 1.6 9.7 0.00 0.00 0.00 77 1008.7
20260504183036 16 147 6.4 9.7 0.00 0.00 0.00 79 1008.8
20260504182537 16 148 6.4 8.0 0.00 0.00 0.00 76 1008.7
20260504182036 17 154 6.4 8.0 0.00 0.00 0.00 78 1008.7
20260504181536 17 156 0.0 6.4 0.00 0.00 0.00 79 1008.7
20260504181038 17 156 0.0 6.4 0.00 0.00 0.00 79 1008.7
20260504180036 17 156 1.6 6.4 0.00 0.00 0.00 78 1008.5
20260504175536 17 156 1.6 1.6 0.00 0.00 0.00 77 1008.5
20260504175036 17 156 0.0 0.0 0.00 0.00 0.00 80 1008.5
20260504174536 16 156 0.0 3.2 0.00 0.00 0.00 79 1008.5
20260504174037 16 156 0.0 3.2 0.00 0.00 0.00 77 1008.5
20260504172536 16 156 0.0 0.0 0.00 0.00 0.00 80 1008.6
20260504172035 16 156 0.0 1.6 0.00 0.00 0.00 81 1008.6
20260504171035 15 156 0.0 1.6 0.00 0.00 0.00 85 1008.6
20260504170535 14 156 0.0 0.0 0.00 0.00 0.00 87 1008.6
20260504151034 13 156 0.0 8.0 0.00 0.00 0.00 81 1008.1
20260504150534 13 156 6.4 9.7 0.00 0.00 0.00 81 1008.1
20260504150104 13 156 0.0 14.5 0.00 0.00 0.00 81 1008.1
20260504141103 11 186 8.0 11.3 0.00 0.00 0.00 87 1007.6